Location: Newark
(48.3453°N, 0.5589°E)
Time: 20:38:07
(UTC+00:00)

SR - All Passes

Search period start: 11 December 2019 00:00
Search period end: 21 December 2019 00:00
Orbit: 573 x 882 km, 66.7° (Epoch: 11 December)

Date Brightness Start Highest point End Pass type
(mag) Time Alt. Az. Time Alt. Az. Time Alt. Az.
11 Dec - 07:35:55 10° ESE 07:37:04 11° E 07:38:13 10° E daylight
11 Dec - 09:12:29 10° SSW 09:17:57 62° ESE 09:23:46 10° NE daylight
11 Dec - 10:55:22 10° WSW 11:00:30 33° NW 11:05:51 10° NNE daylight
11 Dec - 12:41:15 10° NW 12:44:29 15° NNW 12:47:46 10° NNE daylight
11 Dec - 14:26:14 10° NNW 14:29:12 14° N 14:32:10 10° NE daylight
11 Dec - 16:08:18 10° NNW 16:13:23 28° NE 16:18:19 10° E daylight
11 Dec - 17:50:15 10° NW 17:56:12 80° WSW 18:01:48 10° SSE visible
11 Dec - 19:34:12 10° WNW 19:37:22 15° WSW 19:40:25 10° SW visible
12 Dec - 08:23:32 10° S 08:28:30 35° ESE 08:33:46 10° NE daylight
12 Dec - 10:05:00 10° WSW 10:10:28 51° NW 10:16:16 10° NNE daylight
12 Dec - 11:50:04 10° WNW 11:54:02 18° NNW 11:58:04 10° NNE daylight
12 Dec - 13:36:03 10° NNW 13:38:38 13° N 13:41:12 10° NNE daylight
12 Dec - 15:18:44 10° NNW 15:23:07 21° NNE 15:27:25 10° ENE daylight
12 Dec - 17:00:33 10° NNW 17:06:27 63° NE 17:12:03 10° SE visible
12 Dec - 18:43:20 10° NW 18:48:11 27° WSW 18:52:49 10° SSW visible
13 Dec - 07:35:22 10° SSE 07:39:15 20° ESE 07:43:19 10° ENE daylight
13 Dec - 09:15:03 10° SW 09:20:39 82° NW 09:26:37 10° NE daylight
13 Dec - 10:59:03 10° W 11:03:42 24° NNW 11:08:29 10° NNE daylight
13 Dec - 12:45:19 10° NW 12:48:02 13° N 12:50:46 10° NNE daylight
13 Dec - 14:29:06 10° NNW 14:32:43 16° NNE 14:36:17 10° ENE daylight
13 Dec - 16:10:57 10° NNW 16:16:32 40° NE 16:21:51 10° ESE daylight
13 Dec - 17:53:11 10° NW 17:58:49 49° WSW 18:04:09 10° S visible
14 Dec - 08:25:34 10° SSW 08:31:02 59° ESE 08:36:50 10° NE daylight
14 Dec - 10:08:20 10° WSW 10:13:31 35° NW 10:18:56 10° NNE daylight
14 Dec - 11:54:10 10° NW 11:57:29 15° NNW 12:00:50 10° NNE daylight
14 Dec - 13:39:16 10° NNW 13:42:12 14° N 13:45:05 10° NE daylight
14 Dec - 15:21:23 10° NNW 15:26:25 27° NE 15:31:16 10° E daylight
14 Dec - 17:03:19 10° NW 17:09:16 84° WSW 17:14:51 10° SSE visible
14 Dec - 18:47:07 10° WNW 18:50:28 16° WSW 18:53:43 10° SW visible
15 Dec - 07:36:39 10° S 07:41:36 34° ESE 07:46:48 10° NE daylight
15 Dec - 09:17:59 10° SW 09:23:32 53° NW 09:29:21 10° NNE daylight
15 Dec - 11:02:59 10° WNW 11:07:02 19° NNW 11:11:09 10° NNE daylight
15 Dec - 12:49:03 10° NNW 12:51:37 13° N 12:54:10 10° NNE daylight
15 Dec - 14:31:49 10° NNW 14:36:08 20° NNE 14:40:21 10° ENE daylight
15 Dec - 16:13:38 10° NNW 16:19:30 60° NE 16:25:04 10° SE daylight
15 Dec - 17:56:21 10° NW 18:01:17 29° WSW 18:05:58 10° SSW visible
16 Dec - 06:48:35 10° SSE 06:52:22 19° ESE 06:56:17 10° ENE visible
16 Dec - 08:28:05 10° SW 08:33:43 86° NW 08:39:41 10° NE daylight
16 Dec - 10:11:59 10° W 10:16:42 25° NNW 10:21:34 10° NNE daylight
16 Dec - 11:58:15 10° NW 12:01:01 13° N 12:03:48 10° NNE daylight
16 Dec - 13:42:10 10° NNW 13:45:42 16° NNE 13:49:12 10° NE daylight
16 Dec - 15:24:02 10° NNW 15:29:33 38° NE 15:34:50 10° ESE daylight
16 Dec - 17:06:13 10° NW 17:11:55 51° WSW 17:17:14 10° S visible
17 Dec - 07:38:39 10° SSW 07:44:06 56° ESE 07:49:53 10° NE daylight
17 Dec - 09:21:19 10° WSW 09:26:33 36° NW 09:32:01 10° NNE daylight
17 Dec - 11:07:06 10° NW 11:10:28 15° NNW 11:13:54 10° NNE daylight
17 Dec - 12:52:19 10° NNW 12:55:11 13° N 12:58:01 10° NE daylight
17 Dec - 14:34:28 10° NNW 14:39:26 26° NE 14:44:13 10° E daylight
17 Dec - 16:16:23 10° NW 16:22:20 87° WSW 16:27:54 10° SSE daylight
17 Dec - 18:00:03 10° WNW 18:03:34 17° WSW 18:06:59 10° SW visible
18 Dec - 06:49:48 10° S 06:54:42 32° ESE 06:59:50 10° NE visible
18 Dec - 08:31:00 10° SW 08:36:35 55° NW 08:42:26 10° NNE daylight
18 Dec - 10:15:54 10° WNW 10:20:02 19° NNW 10:24:14 10° NNE daylight
18 Dec - 12:02:02 10° NNW 12:04:36 13° N 12:07:09 10° NNE daylight
18 Dec - 13:44:54 10° NNW 13:49:08 20° NNE 13:53:16 10° ENE daylight
18 Dec - 15:26:43 10° NNW 15:32:33 57° NE 15:38:04 10° SE daylight
18 Dec - 17:09:22 10° NW 17:14:23 30° WSW 17:19:07 10° S visible
19 Dec - 06:01:49 10° SE 06:05:28 18° ESE 06:09:14 10° ENE visible
19 Dec - 07:41:07 10° SSW 07:46:47 89° NW 07:52:45 10° NE daylight
19 Dec - 09:24:55 10° W 09:29:44 26° NNW 09:34:40 10° NNE daylight
19 Dec - 11:11:11 10° NW 11:14:00 13° N 11:16:49 10° NNE daylight
19 Dec - 12:55:15 10° NNW 12:58:42 15° NNE 13:02:06 10° NE daylight
19 Dec - 14:37:07 10° NNW 14:42:35 37° NE 14:47:48 10° ESE daylight
19 Dec - 16:19:17 10° NW 16:24:59 54° WSW 16:30:20 10° SSE daylight
20 Dec - 06:51:44 10° SSW 06:57:11 54° ESE 07:02:57 10° NE visible
20 Dec - 08:34:16 10° WSW 08:39:35 37° NW 08:45:06 10° NNE daylight
20 Dec - 10:20:01 10° NW 10:23:28 16° NNW 10:26:58 10° NNE daylight
20 Dec - 12:05:22 10° NNW 12:08:10 13° N 12:10:56 10° NE daylight
20 Dec - 13:47:34 10° NNW 13:52:27 26° NNE 13:57:09 10° E daylight
20 Dec - 15:29:27 10° NW 15:35:24 89° ENE 15:40:57 10° SSE daylight
20 Dec - 17:13:00 10° WNW 17:16:41 18° WSW 17:20:13 10° SW visible
